Stündliche Wetter Aberfoyle

Heute, 25 Juni, Freitag

Zeit Temperatur Niederschläge Wind Luftdruck Luftfeuchtigkeit
00:00 +9°C° 0.2 mm 3 m/S 740 mmHg 92%
01:00 +9°C° 0 mm 3 m/S 740 mmHg 91%
02:00 +8°C° 0 mm 3 m/S 740 mmHg 90%
03:00 +8°C° 0 mm 3 m/S 741 mmHg 88%
04:00 +8°C° 0 mm 3 m/S 741 mmHg 86%
05:00 +8°C° 0 mm 3 m/S 741 mmHg 83%
06:00 +9°C° 0 mm 3 m/S 741 mmHg 81%
07:00 +10°C° 0 mm 4 m/S 741 mmHg 73%
08:00 +10°C° 0 mm 4 m/S 741 mmHg 66%
09:00 +10°C° 0 mm 5 m/S 742 mmHg 58%
10:00 +10°C° 0.1 mm 5 m/S 742 mmHg 61%
11:00 +10°C° 0.1 mm 5 m/S 741 mmHg 63%
12:00 +10°C° 0.1 mm 5 m/S 741 mmHg 66%
13:00 +11°C° 0.1 mm 4 m/S 741 mmHg 69%
14:00 +11°C° 0.1 mm 4 m/S 741 mmHg 71%
15:00 +10°C° 0.1 mm 4 m/S 741 mmHg 74%
16:00 +10°C° 0 mm 3 m/S 741 mmHg 76%
17:00 +10°C° 0 mm 3 m/S 741 mmHg 78%
18:00 +9°C° 0 mm 2 m/S 741 mmHg 80%
19:00 +9°C° 0 mm 2 m/S 742 mmHg 80%
20:00 +9°C° 0 mm 2 m/S 742 mmHg 79%
21:00 +9°C° 0 mm 2 m/S 742 mmHg 79%
22:00 +9°C° 0.2 mm 2 m/S 742 mmHg 83%
23:00 +9°C° 0.2 mm 2 m/S 742 mmHg 87%

Morgen, 26 Juni, Samstag

Zeit Temperatur Niederschläge Wind Luftdruck Luftfeuchtigkeit
00:00 +9°C° 0.2 mm 1 m/S 742 mmHg 90%
01:00 +9°C° 0.1 mm 1 m/S 742 mmHg 92%
02:00 +9°C° 0.1 mm 1 m/S 742 mmHg 93%
03:00 +9°C° 0.1 mm 1 m/S 742 mmHg 94%
04:00 +9°C° 0.1 mm 1 m/S 742 mmHg 94%
05:00 +9°C° 0.1 mm 1 m/S 743 mmHg 94%
06:00 +9°C° 0.1 mm 1 m/S 743 mmHg 94%
07:00 +10°C° 0.1 mm 1 m/S 743 mmHg 93%
08:00 +10°C° 0.1 mm 1 m/S 743 mmHg 92%
09:00 +11°C° 0.1 mm 1 m/S 744 mmHg 91%
10:00 +12°C° 0 mm 1 m/S 744 mmHg 88%
11:00 +13°C° 0 mm 1 m/S 744 mmHg 84%
12:00 +13°C° 0 mm 1 m/S 744 mmHg 81%
13:00 +14°C° 0 mm 1 m/S 744 mmHg 80%
14:00 +14°C° 0 mm 1 m/S 744 mmHg 79%
15:00 +14°C° 0 mm 1 m/S 743 mmHg 78%
16:00 +14°C° 0 mm 1 m/S 743 mmHg 79%
17:00 +14°C° 0 mm 1 m/S 743 mmHg 79%
18:00 +14°C° 0 mm 1 m/S 743 mmHg 80%
19:00 +14°C° 0 mm 1 m/S 743 mmHg 83%
20:00 +13°C° 0 mm 1 m/S 743 mmHg 87%
21:00 +12°C° 0 mm 1 m/S 744 mmHg 91%
22:00 +11°C° 0 mm 1 m/S 743 mmHg 92%
23:00 +10°C° 0 mm 0 m/S 743 mmHg 92%

übermorgen, 27 Juni, Sonntag

Zeit Temperatur Niederschläge Wind Luftdruck Luftfeuchtigkeit
00:00 +10°C° 0 mm 0 m/S 743 mmHg 93%
01:00 +9°C° 0 mm 0 m/S 743 mmHg 94%
02:00 +9°C° 0 mm 0 m/S 743 mmHg 94%
03:00 +9°C° 0 mm 0 m/S 742 mmHg 95%
04:00 +10°C° 0 mm 0 m/S 742 mmHg 92%
05:00 +10°C° 0 mm 0 m/S 742 mmHg 90%
06:00 +11°C° 0 mm 0 m/S 742 mmHg 88%
07:00 +13°C° 0 mm 0 m/S 742 mmHg 83%
08:00 +14°C° 0 mm 0 m/S 742 mmHg 79%
09:00 +16°C° 0 mm 0 m/S 742 mmHg 74%
10:00 +16°C° 0 mm 0 m/S 742 mmHg 70%
11:00 +17°C° 0 mm 0 m/S 741 mmHg 67%
12:00 +20°C° 0 mm 1 m/S 741 mmHg 64%
13:00 +21°C° 0 mm 1 m/S 741 mmHg 63%
14:00 +21°C° 0 mm 1 m/S 741 mmHg 62%
15:00 +21°C° 0 mm 1 m/S 741 mmHg 61%
16:00 +21°C° 0 mm 1 m/S 741 mmHg 63%
17:00 +20°C° 0 mm 1 m/S 740 mmHg 65%
18:00 +20°C° 0 mm 1 m/S 740 mmHg 67%
19:00 +18°C° 0 mm 1 m/S 740 mmHg 73%
20:00 +15°C° 0 mm 1 m/S 740 mmHg 79%
21:00 +14°C° 0 mm 1 m/S 740 mmHg 85%
22:00 +13°C° 0 mm 1 m/S 740 mmHg 86%
23:00 +12°C° 0 mm 1 m/S 740 mmHg 86%

28 Juni, Montag

Zeit Temperatur Niederschläge Wind Luftdruck Luftfeuchtigkeit
00:00 +11°C° 0 mm 1 m/S 740 mmHg 87%
01:00 +11°C° 0 mm 1 m/S 740 mmHg 85%
02:00 +11°C° 0 mm 1 m/S 740 mmHg 84%
03:00 +11°C° 0 mm 1 m/S 740 mmHg 83%
04:00 +12°C° 0 mm 1 m/S 740 mmHg 81%
05:00 +13°C° 0 mm 1 m/S 740 mmHg 78%
06:00 +12°C° 0 mm 0 m/S 740 mmHg 76%
07:00 +14°C° 0 mm 0 m/S 740 mmHg 71%
08:00 +16°C° 0 mm 0 m/S 740 mmHg 66%
09:00 +17°C° 0 mm 0 m/S 740 mmHg 61%
10:00 +20°C° 0 mm 1 m/S 740 mmHg 58%
11:00 +22°C° 0 mm 1 m/S 740 mmHg 54%
12:00 +23°C° 0 mm 1 m/S 740 mmHg 51%
13:00 +23°C° 0 mm 1 m/S 740 mmHg 51%
14:00 +23°C° 0 mm 1 m/S 740 mmHg 52%
15:00 +24°C° 0 mm 2 m/S 740 mmHg 52%
16:00 +23°C° 0 mm 2 m/S 740 mmHg 57%
17:00 +23°C° 0 mm 2 m/S 740 mmHg 61%
18:00 +22°C° 0 mm 1 m/S 740 mmHg 66%
19:00 +20°C° 0 mm 1 m/S 741 mmHg 74%
20:00 +18°C° 0 mm 1 m/S 741 mmHg 81%
21:00 +15°C° 0 mm 1 m/S 741 mmHg 89%
22:00 +15°C° 0 mm 1 m/S 741 mmHg 90%
23:00 +14°C° 0 mm 1 m/S 741 mmHg 91%

29 Juni, Dienstag

Zeit Temperatur Niederschläge Wind Luftdruck Luftfeuchtigkeit
00:00 +13°C° 0 mm 1 m/S 741 mmHg 93%
01:00 +12°C° 0 mm 1 m/S 741 mmHg 92%
02:00 +12°C° 0 mm 1 m/S 741 mmHg 92%
03:00 +12°C° 0 mm 1 m/S 741 mmHg 92%
04:00 +13°C° 0 mm 1 m/S 741 mmHg 89%
05:00 +13°C° 0 mm 0 m/S 742 mmHg 86%
06:00 +14°C° 0 mm 0 m/S 742 mmHg 82%
07:00 +15°C° 0 mm 0 m/S 742 mmHg 78%
08:00 +19°C° 0 mm 1 m/S 742 mmHg 73%
09:00 +21°C° 0 mm 1 m/S 742 mmHg 68%
10:00 +22°C° 0 mm 1 m/S 742 mmHg 66%
11:00 +22°C° 0 mm 1 m/S 742 mmHg 64%
12:00 +23°C° 0 mm 1 m/S 743 mmHg 62%
13:00 +24°C° 0 mm 1 m/S 742 mmHg 60%
14:00 +24°C° 0 mm 1 m/S 742 mmHg 58%
15:00 +25°C° 0 mm 1 m/S 742 mmHg 55%
16:00 +25°C° 0 mm 1 m/S 742 mmHg 59%
17:00 +24°C° 0 mm 1 m/S 742 mmHg 63%
18:00 +24°C° 0 mm 1 m/S 742 mmHg 67%
19:00 +21°C° 0 mm 1 m/S 743 mmHg 74%
20:00 +19°C° 0 mm 1 m/S 743 mmHg 82%
21:00 +16°C° 0 mm 1 m/S 743 mmHg 90%
22:00 +15°C° 0 mm 1 m/S 743 mmHg 91%
23:00 +14°C° 0 mm 1 m/S 744 mmHg 93%

30 Juni, Mittwoch

Zeit Temperatur Niederschläge Wind Luftdruck Luftfeuchtigkeit
00:00 +13°C° 0 mm 1 m/S 744 mmHg 94%
01:00 +12°C° 0 mm 0 m/S 744 mmHg 94%
02:00 +12°C° 0 mm 0 m/S 744 mmHg 94%
03:00 +12°C° 0 mm 0 m/S 744 mmHg 94%
04:00 +13°C° 0 mm 0 m/S 744 mmHg 91%
05:00 +13°C° 0 mm 0 m/S 744 mmHg 89%
06:00 +14°C° 0 mm 0 m/S 744 mmHg 86%
07:00 +16°C° 0 mm 0 m/S 744 mmHg 80%
08:00 +18°C° 0 mm 0 m/S 744 mmHg 74%
09:00 +19°C° 0 mm 0 m/S 744 mmHg 67%
10:00 +21°C° 0 mm 0 m/S 744 mmHg 63%
11:00 +24°C° 0 mm 1 m/S 744 mmHg 59%
12:00 +25°C° 0 mm 1 m/S 744 mmHg 54%
13:00 +25°C° 0 mm 1 m/S 744 mmHg 55%
14:00 +25°C° 0 mm 1 m/S 744 mmHg 56%
15:00 +26°C° 0 mm 1 m/S 744 mmHg 56%
16:00 +25°C° 0 mm 1 m/S 744 mmHg 61%
17:00 +25°C° 0 mm 1 m/S 744 mmHg 67%
18:00 +24°C° 0 mm 1 m/S 744 mmHg 72%
19:00 +22°C° 0.1 mm 1 m/S 744 mmHg 77%
20:00 +21°C° 0.1 mm 1 m/S 744 mmHg 82%
21:00 +19°C° 0.1 mm 1 m/S 744 mmHg 87%
22:00 +18°C° 0 mm 1 m/S 744 mmHg 88%
23:00 +16°C° 0 mm 1 m/S 744 mmHg 88%
Mehr zeigen

Wir brauchen deine Erlaubnis

Meteoprog und unser Service Anbieter werden persönliche Daten aufbewahren, so wie Cookies, Geräte Bezeichnung oder ähnliche Technologien von deinem Gerät und Prozess, so wie Persönliche Daten Inhalte und Werbungen, genauso wie social Media und den Verkehr zu analysieren.

  • Aufbewahrung und/oder Zugang zu deiner Geräte Informationen.

    Cookies, Geräte Bezeichnung oder andere Informationen, können aufbewahrt oder Zugang zu deinem Gerät erhalten, für den Grund, der oben angegeben wird.

  • Personalisierte Werbung und Inhalte, Messungen, Einblick in das Publikum und Produkt Entwicklung.

    Werbungen und Inhalte können personalisiert werden, basierend auf ein Profil. Mehr Daten können besser personalisierte Werbungen und Inhalte hinzufügen. Werbung und Inhalte können gezeigt und gemessen werden. Einblicke über das Publikum, welche die Werbung gesehen haben und den Inhalt, können abgeleitet werden. So wie Daten können genutzt werden, um es zu verbessern oder die Benutzer Erfahrung zu verbessern das System und die Software.

Wenn du “Ich stimme zu” klickst, erlaubst du uns, die Cookies zu benutzen die Geräte Bezeichnung, den Web oder ähnliche Technologien zu benutzen. Deine Settings, können in deinem Gerät bei deinem Browser geändert werden.

Für den bestimmten Zweck, berechtigten Interessen beruhen darauf, mehr als auf den Inhalt. Du kannst mehr darüber in unseren Privaten und Cookie Politik lesen.